This demonstration page uses our WeatherBlox Daily Observations layout. Learn more.

Left ArrowRight Arrow

36.17497, -115.13722

Hourly Observations for March 17, 2016

Temp ( °F °C ) Dew Point ( °F °C ) Humidity (%) Winds ( mph kmh ) Pressure ( in mb ) Visibility ( mi km ) Precip ( " mm )
12:53 am 00:53 Clear 58 14.4 23 -5 26 26 NW 8 13 29.99 1016 10 16.0934 0 0
1:53 am 01:53 Clear 57 13.9 23 -5 27 27 WNW 5 7 29.99 1016 10 16.0934 0 0
2:53 am 02:53 Clear 57 13.9 20 -6.7 24 24 Calm 29.98 1015 10 16.0934 0 0
3:53 am 03:53 Clear 54 12.2 23 -5 30 30 S 6 9 29.97 1015 10 16.0934 0 0
4:53 am 04:53 Clear 53 11.7 21 -6.1 28 28 WNW 3 6 29.98 1015 10 16.0934 0 0
5:53 am 05:53 Clear 54 12.2 21 -6.1 28 28 WNW 3 6 29.98 1015 10 16.0934 0 0
6:53 am 06:53 Sunny 51 10.6 22 -5.6 32 32 NNW 8 13 29.99 1016 10 16.0934 0 0
7:53 am 07:53 Sunny 55 12.8 22 -5.6 28 28 NNW 3 6 30 1016 10 16.0934 0 0
8:53 am 08:53 Sunny 62 16.7 22 -5.6 21 21 NNW 6 9 30 1016 10 16.0934 0 0
9:53 am 09:53 Sunny 66 18.9 19 -7.2 16 16 Calm 29.99 1016 10 16.0934 0 0
10:53 am 10:53 Sunny 69 20.6 20 -6.7 15 15 Calm 29.98 1015 10 16.0934 0 0
11:53 am 11:53 Sunny 71 21.7 21 -6.1 15 15 ESE 5 7 29.97 1015 10 16.0934 0 0
12:53 pm 12:53 Sunny 73 22.8 18 -7.8 12 12 SSE 6 9 29.94 1014 10 16.0934 0 0
1:53 pm 13:53 Sunny 76 24.4 18 -7.8 11 11 undefined N/A 29.91 1013 10 16.0934 0 0
2:53 pm 14:53 Sunny 78 25.6 18 -7.8 10 10 ENE 3 6 29.88 1012 10 16.0934 0 0
3:53 pm 15:53 Sunny 79 26.1 18 -7.8 10 10 NNW 3 6 29.85 1011 10 16.0934 0 0
4:53 pm 16:53 Sunny 80 26.7 19 -7.2 10 10 VRB 3 6 29.84 1010 10 16.0934 0 0
5:53 pm 17:53 Sunny 79 26.1 19 -7.2 10 10 S 3 6 29.83 1010 10 16.0934 0 0
6:53 pm 18:53 Clear 77 25 20 -6.7 12 12 SW 6 9 29.83 1010 10 16.0934 0 0
7:53 pm 19:53 Clear 75 23.9 20 -6.7 12 12 WSW 7 11 29.84 1011 10 16.0934 0 0
8:53 pm 20:53 Clear 73 22.8 22 -5.6 15 15 N 3 6 29.85 1011 10 16.0934 0 0
9:53 pm 21:53 Clear 67 19.4 23 -5 19 19 NNW 5 7 29.86 1011 10 16.0934 0 0
10:53 pm 22:53 Clear 65 18.3 25 -3.9 22 22 WNW 9 15 29.86 1011 10 16.0934 0 0
11:53 pm 23:53 Clear 64 17.8 23 -5 21 21 NW 12 19 29.87 1011 10 16.0934 0 0

Powered by AerisWeather